Time,TemperatureF,DewpointF,PressureIn,WindDirection,WindDirectionDegrees,WindSpeedMPH,WindSpeedGustMPH,Humidity,HourlyPrecipIn,Conditions,Clouds,dailyrainin,SoftwareType,DateUTC
2013-02-05 00:01:00,40.7,29.5,29.97,South,175,7.0,8.0,64,0.00,,,0.00,Wunderground v.1.15,2013-02-05 06:01:00,
2013-02-05 00:07:00,40.7,29.5,29.97,SSW,208,6.0,12.0,64,0.00,,,0.00,Wunderground v.1.15,2013-02-05 06:07:00,
2013-02-05 00:12:00,40.7,29.8,29.97,South,189,11.0,11.0,65,0.00,,,0.00,Wunderground v.1.15,2013-02-05 06:12:00,
2013-02-05 00:18:00,40.7,29.8,29.96,ESE,117,8.0,14.0,65,0.00,,,0.00,Wunderground v.1.15,2013-02-05 06:18:00,
2013-02-05 00:23:00,40.7,29.8,29.97,SE,136,7.0,15.0,65,0.00,,,0.00,Wunderground v.1.15,2013-02-05 06:23:00,
2013-02-05 00:29:00,40.7,29.8,29.97,South,188,10.0,15.0,65,0.00,,,0.00,Wunderground v.1.15,2013-02-05 06:29:00,
2013-02-05 00:34:00,40.8,29.9,29.96,South,184,7.0,8.0,65,0.00,,,0.00,Wunderground v.1.15,2013-02-05 06:34:00,
2013-02-05 00:40:00,40.8,29.9,29.97,SSW,201,7.0,7.0,65,0.00,,,0.00,Wunderground v.1.15,2013-02-05 06:40:00,
2013-02-05 00:45:00,40.9,30.0,29.96,SSE,167,6.0,12.0,65,0.00,,,0.00,Wunderground v.1.15,2013-02-05 06:45:00,
2013-02-05 00:51:00,41.0,30.5,29.96,SW,215,9.0,9.0,66,0.00,,,0.00,Wunderground v.1.15,2013-02-05 06:51:00,
2013-02-05 00:56:00,40.9,30.4,29.96,SSE,166,9.0,9.0,66,0.00,,,0.00,Wunderground v.1.15,2013-02-05 06:56:00,
2013-02-05 01:01:00,41.0,30.1,29.96,SSE,154,13.0,13.0,65,0.00,,,0.00,Wunderground v.1.15,2013-02-05 07:01:00,
2013-02-05 01:07:00,41.0,30.5,29.96,SW,214,12.0,13.0,66,0.00,,,0.00,Wunderground v.1.15,2013-02-05 07:07:00,
2013-02-05 01:13:00,41.0,30.5,29.96,SSE,160,5.0,13.0,66,0.00,,,0.00,Wunderground v.1.15,2013-02-05 07:13:00,
2013-02-05 01:19:00,41.1,30.2,29.96,SSW,200,13.0,13.0,65,0.00,,,0.00,Wunderground v.1.15,2013-02-05 07:19:00,
2013-02-05 01:24:00,41.3,30.4,29.96,SSW,198,11.0,13.0,65,0.00,,,0.00,Wunderground v.1.15,2013-02-05 07:24:00,
2013-02-05 01:30:00,41.5,30.6,29.96,SSW,213,14.0,14.0,65,0.00,,,0.00,Wunderground v.1.15,2013-02-05 07:30:00,
2013-02-05 01:35:00,41.1,30.6,29.96,WSW,243,9.0,14.0,66,0.00,,,0.00,Wunderground v.1.15,2013-02-05 07:35:00,
2013-02-05 01:40:00,40.8,30.3,29.96,SSW,211,16.0,16.0,66,0.00,,,0.00,Wunderground v.1.15,2013-02-05 07:40:00,
2013-02-05 01:45:00,40.8,30.7,29.96,WSW,239,7.0,17.0,67,0.00,,,0.00,Wunderground v.1.15,2013-02-05 07:45:00,
2013-02-05 01:51:00,40.6,30.5,29.96,SSW,201,8.0,10.0,67,0.00,,,0.00,Wunderground v.1.15,2013-02-05 07:51:00,
2013-02-05 01:56:00,40.6,30.5,29.95,SSW,213,7.0,14.0,67,0.00,,,0.00,Wunderground v.1.15,2013-02-05 07:56:00,
2013-02-05 02:01:00,40.6,30.5,29.96,SSW,211,10.0,13.0,67,0.00,,,0.00,Wunderground v.1.15,2013-02-05 08:01:00,
2013-02-05 02:06:00,40.5,30.8,29.96,WSW,239,8.0,15.0,68,0.00,,,0.00,Wunderground v.1.15,2013-02-05 08:06:00,
2013-02-05 02:12:00,40.3,30.6,29.96,WSW,252,12.0,14.0,68,0.00,,,0.00,Wunderground v.1.15,2013-02-05 08:12:00,
2013-02-05 02:17:00,40.2,30.8,29.96,SW,225,11.0,14.0,69,0.00,,,0.00,Wunderground v.1.15,2013-02-05 08:17:00,
2013-02-05 02:22:00,39.9,31.3,29.96,SW,223,10.0,16.0,71,0.00,,,0.00,Wunderground v.1.15,2013-02-05 08:22:00,
2013-02-05 02:27:00,40.0,31.7,29.95,SW,224,14.0,18.0,72,0.00,,,0.00,Wunderground v.1.15,2013-02-05 08:27:00,
2013-02-05 02:32:00,40.3,32.0,29.95,West,274,6.0,18.0,72,0.00,,,0.00,Wunderground v.1.15,2013-02-05 08:32:00,
2013-02-05 02:37:00,40.3,32.0,29.96,WSW,241,13.0,18.0,72,0.00,,,0.00,Wunderground v.1.15,2013-02-05 08:37:00,
2013-02-05 02:42:00,40.1,32.1,29.96,SW,223,11.0,15.0,73,0.00,,,0.00,Wunderground v.1.15,2013-02-05 08:42:00,
2013-02-05 02:47:00,39.5,32.2,29.97,SW,230,13.0,15.0,75,0.00,,,0.00,Wunderground v.1.15,2013-02-05 08:47:00,
2013-02-05 02:52:00,39.3,32.0,29.96,WSW,248,10.0,16.0,75,0.00,,,0.00,Wunderground v.1.15,2013-02-05 08:52:00,
2013-02-05 02:57:00,39.4,32.1,29.96,SW,236,7.0,16.0,75,0.00,,,0.00,Wunderground v.1.15,2013-02-05 08:57:00,
2013-02-05 03:02:00,39.5,32.6,29.96,SW,228,10.0,13.0,76,0.00,,,0.00,Wunderground v.1.15,2013-02-05 09:02:00,
2013-02-05 03:07:00,39.2,32.9,29.97,WSW,246,14.0,14.0,78,0.00,,,0.00,Wunderground v.1.15,2013-02-05 09:07:00,
2013-02-05 03:12:00,38.9,33.3,29.97,West,277,10.0,13.0,80,0.00,,,0.01,Wunderground v.1.15,2013-02-05 09:12:00,
2013-02-05 03:17:00,38.6,33.3,29.97,West,271,9.0,14.0,81,0.00,,,0.01,Wunderground v.1.15,2013-02-05 09:17:00,
2013-02-05 03:22:00,38.3,33.0,29.97,SW,234,7.0,10.0,81,0.00,,,0.01,Wunderground v.1.15,2013-02-05 09:22:00,
2013-02-05 03:27:00,38.5,34.4,29.96,WSW,246,14.0,19.0,85,0.00,,,0.01,Wunderground v.1.15,2013-02-05 09:27:00,
2013-02-05 03:32:00,38.7,34.3,29.96,West,270,10.0,16.0,84,0.00,,,0.01,Wunderground v.1.15,2013-02-05 09:32:00,
2013-02-05 03:37:00,38.4,34.6,29.96,SSW,211,13.0,16.0,86,0.00,,,0.01,Wunderground v.1.15,2013-02-05 09:37:00,
2013-02-05 03:43:00,38.3,34.8,29.95,South,182,9.0,15.0,87,0.00,,,0.01,Wunderground v.1.15,2013-02-05 09:43:00,
2013-02-05 03:48:00,38.5,35.3,29.95,SW,228,9.0,18.0,88,0.00,,,0.01,Wunderground v.1.15,2013-02-05 09:48:00,
2013-02-05 03:53:00,38.6,35.9,29.94,SSW,193,9.0,19.0,90,0.00,,,0.01,Wunderground v.1.15,2013-02-05 09:53:00,
2013-02-05 03:58:00,38.8,36.1,29.94,WSW,242,6.0,20.0,90,0.00,,,0.01,Wunderground v.1.15,2013-02-05 09:58:00,
2013-02-05 04:03:00,38.9,35.9,29.95,SW,223,7.0,18.0,89,0.00,,,0.01,Wunderground v.1.15,2013-02-05 10:03:00,
2013-02-05 04:08:00,38.8,35.8,29.95,WSW,248,15.0,18.0,89,0.00,,,0.01,Wunderground v.1.15,2013-02-05 10:08:00,
2013-02-05 04:13:00,38.7,35.7,29.95,West,260,9.0,15.0,89,0.00,,,0.01,Wunderground v.1.15,2013-02-05 10:13:00,
2013-02-05 04:18:00,38.6,35.9,29.96,WSW,244,8.0,17.0,90,0.00,,,0.01,Wunderground v.1.15,2013-02-05 10:18:00,
2013-02-05 04:23:00,38.6,35.9,29.95,SW,233,12.0,14.0,90,0.00,,,0.01,Wunderground v.1.15,2013-02-05 10:23:00,
2013-02-05 04:28:00,38.7,36.0,29.95,SW,232,15.0,18.0,90,0.00,,,0.01,Wunderground v.1.15,2013-02-05 10:28:00,
2013-02-05 04:33:00,39.1,36.1,29.95,West,262,9.0,19.0,89,0.00,,,0.01,Wunderground v.1.15,2013-02-05 10:33:00,
2013-02-05 04:38:00,39.1,36.1,29.95,WSW,250,13.0,21.0,89,0.00,,,0.01,Wunderground v.1.15,2013-02-05 10:38:00,
2013-02-05 04:43:00,39.0,36.0,29.95,WSW,242,14.0,18.0,89,0.00,,,0.01,Wunderground v.1.15,2013-02-05 10:43:00,
2013-02-05 04:48:00,39.1,36.1,29.94,West,261,12.0,18.0,89,0.00,,,0.01,Wunderground v.1.15,2013-02-05 10:48:00,
2013-02-05 04:53:00,39.0,36.0,29.95,SW,223,12.0,14.0,89,0.00,,,0.01,Wunderground v.1.15,2013-02-05 10:53:00,
2013-02-05 04:58:00,38.9,36.2,29.95,SW,229,14.0,14.0,90,0.00,,,0.01,Wunderground v.1.15,2013-02-05 10:58:00,
2013-02-05 05:03:00,38.8,36.1,29.96,West,279,7.0,15.0,90,0.00,,,0.01,Wunderground v.1.15,2013-02-05 11:03:00,
2013-02-05 05:08:00,38.7,36.0,29.95,West,265,5.0,15.0,90,0.00,,,0.01,Wunderground v.1.15,2013-02-05 11:08:00,
2013-02-05 05:13:00,38.7,36.3,29.96,WNW,285,6.0,14.0,91,0.00,,,0.01,Wunderground v.1.15,2013-02-05 11:13:00,
2013-02-05 05:18:00,38.7,36.3,29.95,SW,217,11.0,15.0,91,0.00,,,0.01,Wunderground v.1.15,2013-02-05 11:18:00,
2013-02-05 05:23:00,38.9,36.5,29.95,WSW,250,8.0,15.0,91,0.00,,,0.01,Wunderground v.1.15,2013-02-05 11:23:00,
2013-02-05 05:28:00,39.1,36.7,29.95,SW,227,12.0,17.0,91,0.00,,,0.01,Wunderground v.1.15,2013-02-05 11:28:00,
2013-02-05 05:33:00,39.1,36.7,29.95,WSW,251,14.0,18.0,91,0.00,,,0.01,Wunderground v.1.15,2013-02-05 11:33:00,
2013-02-05 05:38:00,39.1,36.7,29.96,West,269,8.0,20.0,91,0.00,,,0.01,Wunderground v.1.15,2013-02-05 11:38:00,
2013-02-05 05:43:00,39.2,36.8,29.96,WSW,243,8.0,17.0,91,0.00,,,0.01,Wunderground v.1.15,2013-02-05 11:43:00,
2013-02-05 05:48:00,39.0,36.6,29.97,SW,223,14.0,17.0,91,0.00,,,0.01,Wunderground v.1.15,2013-02-05 11:48:00,
2013-02-05 05:53:00,38.9,36.5,29.96,SW,227,12.0,14.0,91,0.00,,,0.01,Wunderground v.1.15,2013-02-05 11:53:00,
2013-02-05 05:58:00,39.0,36.6,29.97,SW,220,8.0,16.0,91,0.00,,,0.01,Wunderground v.1.15,2013-02-05 11:58:00,
2013-02-05 06:03:00,39.2,36.8,29.97,SW,223,15.0,17.0,91,0.00,,,0.01,Wunderground v.1.15,2013-02-05 12:03:00,
2013-02-05 06:08:00,39.3,36.6,29.97,SW,227,7.0,17.0,90,0.00,,,0.01,Wunderground v.1.15,2013-02-05 12:08:00,
2013-02-05 06:13:00,39.3,36.6,29.97,West,259,7.0,13.0,90,0.00,,,0.01,Wunderground v.1.15,2013-02-05 12:13:00,
2013-02-05 06:18:00,39.2,36.5,29.97,West,267,7.0,16.0,90,0.00,,,0.01,Wunderground v.1.15,2013-02-05 12:18:00,
2013-02-05 06:24:00,39.1,36.4,29.98,West,262,10.0,12.0,90,0.00,,,0.01,Wunderground v.1.15,2013-02-05 12:24:00,
2013-02-05 06:29:00,39.1,36.4,29.98,SW,214,6.0,15.0,90,0.00,,,0.01,Wunderground v.1.15,2013-02-05 12:29:00,
2013-02-05 06:34:00,39.0,36.3,29.98,WSW,242,11.0,13.0,90,0.00,,,0.01,Wunderground v.1.15,2013-02-05 12:34:00,
2013-02-05 06:39:00,38.9,36.5,29.98,SW,236,10.0,13.0,91,0.00,,,0.01,Wunderground v.1.15,2013-02-05 12:39:00,
2013-02-05 06:44:00,38.7,36.3,29.98,WSW,255,6.0,13.0,91,0.00,,,0.01,Wunderground v.1.15,2013-02-05 12:44:00,
2013-02-05 06:49:00,38.6,36.2,29.99,WSW,241,12.0,14.0,91,0.00,,,0.01,Wunderground v.1.15,2013-02-05 12:49:00,
2013-02-05 06:54:00,38.4,36.3,29.99,WSW,245,11.0,15.0,92,0.00,,,0.01,Wunderground v.1.15,2013-02-05 12:54:00,
2013-02-05 06:59:00,38.3,36.2,29.99,SW,225,12.0,15.0,92,0.00,,,0.01,Wunderground v.1.15,2013-02-05 12:59:00,
2013-02-05 07:04:00,38.2,36.4,29.98,SSW,213,8.0,13.0,93,0.00,,,0.01,Wunderground v.1.15,2013-02-05 13:04:00,
2013-02-05 07:09:00,38.1,36.3,29.98,SW,222,9.0,13.0,93,0.00,,,0.01,Wunderground v.1.15,2013-02-05 13:09:00,
2013-02-05 07:14:00,38.1,36.5,29.98,SSW,213,7.0,11.0,94,0.00,,,0.01,Wunderground v.1.15,2013-02-05 13:14:00,
2013-02-05 07:19:00,38.0,36.4,29.98,SW,221,9.0,13.0,94,0.00,,,0.01,Wunderground v.1.15,2013-02-05 13:19:00,
2013-02-05 07:24:00,38.0,36.4,29.99,SW,235,11.0,12.0,94,0.00,,,0.01,Wunderground v.1.15,2013-02-05 13:24:00,
2013-02-05 07:29:00,38.0,36.7,29.99,SSW,209,7.0,12.0,95,0.00,,,0.01,Wunderground v.1.15,2013-02-05 13:29:00,
2013-02-05 07:34:00,38.0,36.7,29.99,SW,226,9.0,11.0,95,0.00,,,0.01,Wunderground v.1.15,2013-02-05 13:34:00,
2013-02-05 07:39:00,38.0,36.7,29.99,SW,236,6.0,13.0,95,0.00,,,0.01,Wunderground v.1.15,2013-02-05 13:39:00,
2013-02-05 07:44:00,38.0,36.7,29.99,SW,228,9.0,10.0,95,0.00,,,0.01,Wunderground v.1.15,2013-02-05 13:44:00,
2013-02-05 07:49:00,38.1,36.8,29.99,SW,224,8.0,12.0,95,0.00,,,0.01,Wunderground v.1.15,2013-02-05 13:49:00,
2013-02-05 07:55:00,38.3,37.0,29.99,WSW,241,9.0,13.0,95,0.00,,,0.01,Wunderground v.1.15,2013-02-05 13:55:00,
2013-02-05 08:00:00,38.5,37.2,29.99,SSW,196,8.0,15.0,95,0.00,,,0.01,Wunderground v.1.15,2013-02-05 14:00:00,
2013-02-05 08:05:00,38.6,37.6,29.99,West,260,12.0,15.0,96,0.00,,,0.01,Wunderground v.1.15,2013-02-05 14:05:00,
2013-02-05 08:10:00,38.6,37.6,30.00,SW,232,10.0,15.0,96,0.00,,,0.01,Wunderground v.1.15,2013-02-05 14:10:00,
2013-02-05 08:15:00,38.6,37.6,30.00,SW,220,11.0,14.0,96,0.00,,,0.01,Wunderground v.1.15,2013-02-05 14:15:00,
2013-02-05 08:20:00,38.7,37.7,30.00,West,260,7.0,14.0,96,0.00,,,0.01,Wunderground v.1.15,2013-02-05 14:20:00,
2013-02-05 08:25:00,38.7,37.7,30.00,West,265,8.0,13.0,96,0.00,,,0.01,Wunderground v.1.15,2013-02-05 14:25:00,
2013-02-05 08:30:00,38.7,37.7,30.00,SW,236,13.0,13.0,96,0.00,,,0.01,Wunderground v.1.15,2013-02-05 14:30:00,
2013-02-05 08:35:00,38.8,37.8,30.01,West,277,9.0,13.0,96,0.00,,,0.01,Wunderground v.1.15,2013-02-05 14:35:00,
2013-02-05 08:40:00,38.8,37.8,30.01,SW,231,8.0,14.0,96,0.00,,,0.01,Wunderground v.1.15,2013-02-05 14:40:00,
2013-02-05 08:45:00,38.8,37.8,30.01,WSW,240,9.0,13.0,96,0.00,,,0.01,Wunderground v.1.15,2013-02-05 14:45:00,
2013-02-05 08:50:00,38.9,37.9,30.01,WSW,252,7.0,14.0,96,0.00,,,0.01,Wunderground v.1.15,2013-02-05 14:50:00,
2013-02-05 08:55:00,39.1,38.1,30.01,WSW,246,9.0,13.0,96,0.00,,,0.01,Wunderground v.1.15,2013-02-05 14:55:00,
2013-02-05 09:00:00,39.2,38.2,30.01,WSW,251,10.0,13.0,96,0.00,,,0.01,Wunderground v.1.15,2013-02-05 15:00:00,
2013-02-05 09:05:00,39.3,38.3,30.01,West,261,9.0,13.0,96,0.00,,,0.01,Wunderground v.1.15,2013-02-05 15:05:00,
2013-02-05 09:10:00,39.3,38.3,30.01,SW,218,4.0,8.0,96,0.00,,,0.01,Wunderground v.1.15,2013-02-05 15:10:00,
2013-02-05 09:15:00,39.5,38.5,30.02,SW,234,7.0,10.0,96,0.00,,,0.01,Wunderground v.1.15,2013-02-05 15:15:00,
2013-02-05 09:20:00,39.6,38.6,30.02,SW,234,10.0,10.0,96,0.00,,,0.01,Wunderground v.1.15,2013-02-05 15:20:00,
2013-02-05 09:25:00,39.7,38.7,30.02,WSW,254,7.0,10.0,96,0.00,,,0.01,Wunderground v.1.15,2013-02-05 15:25:00,
2013-02-05 09:30:00,39.8,38.8,30.02,SW,228,6.0,8.0,96,0.00,,,0.01,Wunderground v.1.15,2013-02-05 15:30:00,
2013-02-05 09:35:00,40.0,39.0,30.02,SW,228,6.0,11.0,96,0.00,,,0.01,Wunderground v.1.15,2013-02-05 15:35:00,
2013-02-05 09:40:00,40.1,39.1,30.02,SSW,209,7.0,9.0,96,0.00,,,0.01,Wunderground v.1.15,2013-02-05 15:40:00,
2013-02-05 09:45:00,40.2,39.2,30.02,SSW,213,5.0,11.0,96,0.00,,,0.01,Wunderground v.1.15,2013-02-05 15:45:00,
2013-02-05 09:50:00,40.4,39.4,30.02,WNW,285,5.0,7.0,96,0.00,,,0.01,Wunderground v.1.15,2013-02-05 15:50:00,
2013-02-05 09:55:00,40.5,39.4,30.02,SW,229,9.0,11.0,96,0.00,,,0.01,Wunderground v.1.15,2013-02-05 15:55:00,
2013-02-05 10:00:00,40.6,39.5,30.03,NW,316,4.0,7.0,96,0.00,,,0.01,Wunderground v.1.15,2013-02-05 16:00:00,
2013-02-05 10:05:00,40.8,39.7,30.02,West,266,6.0,10.0,96,0.00,,,0.01,Wunderground v.1.15,2013-02-05 16:05:00,
2013-02-05 10:10:00,40.9,39.8,30.03,WSW,252,5.0,8.0,96,0.00,,,0.01,Wunderground v.1.15,2013-02-05 16:10:00,
2013-02-05 10:15:00,40.9,39.8,30.03,WSW,237,8.0,11.0,96,0.00,,,0.01,Wunderground v.1.15,2013-02-05 16:15:00,
2013-02-05 10:20:00,40.9,39.8,30.03,WSW,240,4.0,6.0,96,0.00,,,0.01,Wunderground v.1.15,2013-02-05 16:20:00,
2013-02-05 10:25:00,41.0,39.9,30.03,WSW,250,8.0,10.0,96,0.00,,,0.01,Wunderground v.1.15,2013-02-05 16:25:00,
2013-02-05 10:31:00,41.1,40.0,30.03,SSW,194,4.0,7.0,96,0.00,,,0.01,Wunderground v.1.15,2013-02-05 16:31:00,
2013-02-05 10:36:00,41.2,40.1,30.03,SSW,213,9.0,11.0,96,0.00,,,0.01,Wunderground v.1.15,2013-02-05 16:36:00,
2013-02-05 10:41:00,41.3,40.2,30.03,SW,217,9.0,9.0,96,0.00,,,0.01,Wunderground v.1.15,2013-02-05 16:41:00,
2013-02-05 10:46:00,41.5,40.4,30.03,SW,227,3.0,10.0,96,0.00,,,0.01,Wunderground v.1.15,2013-02-05 16:46:00,
2013-02-05 10:51:00,42.0,40.7,30.02,WSW,245,5.0,9.0,95,0.00,,,0.01,Wunderground v.1.15,2013-02-05 16:51:00,
2013-02-05 10:56:00,42.2,40.9,30.02,SW,224,5.0,9.0,95,0.00,,,0.01,Wunderground v.1.15,2013-02-05 16:56:00,
2013-02-05 11:01:00,42.4,40.8,30.02,SSW,197,2.0,6.0,94,0.00,,,0.01,Wunderground v.1.15,2013-02-05 17:01:00,
2013-02-05 11:06:00,42.8,40.9,30.02,WSW,242,7.0,9.0,93,0.00,,,0.01,Wunderground v.1.15,2013-02-05 17:06:00,
2013-02-05 11:11:00,43.2,40.8,30.02,NW,305,6.0,9.0,91,0.00,,,0.01,Wunderground v.1.15,2013-02-05 17:11:00,
2013-02-05 11:16:00,43.4,40.9,30.02,WNW,300,3.0,9.0,91,0.00,,,0.01,Wunderground v.1.15,2013-02-05 17:16:00,
2013-02-05 11:21:00,43.7,41.0,30.02,WSW,252,2.0,5.0,90,0.00,,,0.01,Wunderground v.1.15,2013-02-05 17:21:00,
2013-02-05 11:26:00,43.9,41.2,30.02,WSW,239,4.0,7.0,90,0.00,,,0.01,Wunderground v.1.15,2013-02-05 17:26:00,
2013-02-05 11:31:00,44.3,41.3,30.02,WSW,251,9.0,9.0,89,0.00,,,0.01,Wunderground v.1.15,2013-02-05 17:31:00,
2013-02-05 11:36:00,44.5,40.9,30.01,West,261,5.0,9.0,87,0.00,,,0.01,Wunderground v.1.15,2013-02-05 17:36:00,
2013-02-05 11:41:00,44.5,40.9,30.01,SW,215,7.0,7.0,87,0.00,,,0.01,Wunderground v.1.15,2013-02-05 17:41:00,
2013-02-05 11:46:00,44.7,40.8,30.01,SW,229,3.0,9.0,86,0.00,,,0.01,Wunderground v.1.15,2013-02-05 17:46:00,
2013-02-05 11:51:00,45.0,41.1,30.00,WSW,239,8.0,9.0,86,0.00,,,0.01,Wunderground v.1.15,2013-02-05 17:51:00,
2013-02-05 11:56:00,45.5,41.3,30.00,WSW,252,9.0,9.0,85,0.00,,,0.01,Wunderground v.1.15,2013-02-05 17:56:00,
2013-02-05 12:01:00,45.8,41.2,30.00,WSW,254,3.0,6.0,84,0.00,,,0.01,Wunderground v.1.15,2013-02-05 18:01:00,
2013-02-05 12:06:00,46.2,41.3,30.00,WNW,287,2.0,9.0,83,0.00,,,0.01,Wunderground v.1.15,2013-02-05 18:06:00,
2013-02-05 12:11:00,46.4,40.9,30.00,West,262,8.0,11.0,81,0.00,,,0.01,Wunderground v.1.15,2013-02-05 18:11:00,
2013-02-05 12:16:00,46.5,41.3,29.99,West,259,4.0,11.0,82,0.00,,,0.01,Wunderground v.1.15,2013-02-05 18:16:00,
2013-02-05 12:21:00,46.8,41.6,29.99,WNW,285,5.0,8.0,82,0.00,,,0.01,Wunderground v.1.15,2013-02-05 18:21:00,
2013-02-05 12:26:00,47.3,42.1,29.99,WSW,237,7.0,9.0,82,0.00,,,0.01,Wunderground v.1.15,2013-02-05 18:26:00,
2013-02-05 12:31:00,47.8,41.9,29.99,NW,313,5.0,5.0,80,0.00,,,0.01,Wunderground v.1.15,2013-02-05 18:31:00,
2013-02-05 12:36:00,48.4,42.5,29.99,West,273,7.0,9.0,80,0.00,,,0.01,Wunderground v.1.15,2013-02-05 18:36:00,
2013-02-05 12:41:00,48.2,41.7,29.99,SW,235,5.0,8.0,78,0.00,,,0.01,Wunderground v.1.15,2013-02-05 18:41:00,
2013-02-05 12:46:00,48.5,42.6,29.98,NW,311,5.0,9.0,80,0.00,,,0.01,Wunderground v.1.15,2013-02-05 18:46:00,
2013-02-05 12:51:00,48.8,41.6,29.98,West,268,7.0,7.0,76,0.00,,,0.01,Wunderground v.1.15,2013-02-05 18:51:00,
2013-02-05 12:56:00,49.0,41.8,29.98,WSW,244,7.0,11.0,76,0.00,,,0.01,Wunderground v.1.15,2013-02-05 18:56:00,
2013-02-05 13:01:00,49.3,41.7,29.97,NW,305,2.0,6.0,75,0.00,,,0.01,Wunderground v.1.15,2013-02-05 19:01:00,
2013-02-05 13:06:00,50.0,41.3,29.97,NW,325,5.0,11.0,72,0.00,,,0.01,Wunderground v.1.15,2013-02-05 19:06:00,
2013-02-05 13:12:00,50.0,40.2,29.98,West,273,3.0,7.0,69,0.00,,,0.01,Wunderground v.1.15,2013-02-05 19:12:00,
2013-02-05 13:17:00,50.4,41.7,29.98,SW,236,9.0,9.0,72,0.00,,,0.01,Wunderground v.1.15,2013-02-05 19:17:00,
2013-02-05 13:22:00,50.5,40.3,29.98,WSW,247,8.0,10.0,68,0.00,,,0.01,Wunderground v.1.15,2013-02-05 19:22:00,
2013-02-05 13:27:00,50.7,40.5,29.98,West,280,11.0,11.0,68,0.00,,,0.01,Wunderground v.1.15,2013-02-05 19:27:00,
2013-02-05 13:32:00,50.7,39.7,29.98,West,262,7.0,10.0,66,0.00,,,0.01,Wunderground v.1.15,2013-02-05 19:32:00,
2013-02-05 13:37:00,50.9,39.9,29.97,West,268,6.0,10.0,66,0.00,,,0.01,Wunderground v.1.15,2013-02-05 19:37:00,
2013-02-05 13:42:00,51.3,39.9,29.97,West,263,4.0,9.0,65,0.00,,,0.01,Wunderground v.1.15,2013-02-05 19:42:00,
2013-02-05 13:47:00,51.7,40.3,29.97,SW,230,9.0,10.0,65,0.00,,,0.01,Wunderground v.1.15,2013-02-05 19:47:00,
2013-02-05 13:52:00,51.9,40.5,29.97,WSW,250,7.0,8.0,65,0.00,,,0.01,Wunderground v.1.15,2013-02-05 19:52:00,
2013-02-05 13:57:00,51.8,40.8,29.97,West,275,1.0,8.0,66,0.00,,,0.01,Wunderground v.1.15,2013-02-05 19:57:00,
2013-02-05 14:02:00,52.3,41.7,29.97,SW,229,8.0,10.0,67,0.00,,,0.01,Wunderground v.1.15,2013-02-05 20:02:00,
2013-02-05 14:07:00,52.4,39.3,29.97,SW,227,2.0,11.0,61,0.00,,,0.01,Wunderground v.1.15,2013-02-05 20:07:00,
2013-02-05 14:12:00,52.4,39.3,29.97,SW,230,6.0,6.0,61,0.00,,,0.01,Wunderground v.1.15,2013-02-05 20:12:00,
2013-02-05 14:17:00,52.4,38.5,29.97,SSE,167,1.0,10.0,59,0.00,,,0.01,Wunderground v.1.15,2013-02-05 20:17:00,
2013-02-05 14:22:00,53.0,40.3,29.97,West,263,3.0,8.0,62,0.00,,,0.01,Wunderground v.1.15,2013-02-05 20:22:00,
2013-02-05 14:27:00,53.3,40.2,29.97,NW,321,4.0,9.0,61,0.00,,,0.01,Wunderground v.1.15,2013-02-05 20:27:00,
2013-02-05 14:32:00,53.2,39.2,29.97,West,261,4.0,12.0,59,0.00,,,0.01,Wunderground v.1.15,2013-02-05 20:32:00,
2013-02-05 14:37:00,53.1,39.1,29.96,SW,227,10.0,12.0,59,0.00,,,0.01,Wunderground v.1.15,2013-02-05 20:37:00,
2013-02-05 14:42:00,53.2,38.8,29.97,WNW,290,6.0,8.0,58,0.00,,,0.01,Wunderground v.1.15,2013-02-05 20:42:00,
2013-02-05 14:47:00,53.3,38.9,29.97,SW,221,6.0,11.0,58,0.00,,,0.01,Wunderground v.1.15,2013-02-05 20:47:00,
2013-02-05 14:52:00,53.3,38.9,29.97,SSW,206,5.0,10.0,58,0.00,,,0.01,Wunderground v.1.15,2013-02-05 20:52:00,
2013-02-05 14:57:00,53.5,39.5,29.97,SW,231,7.0,10.0,59,0.00,,,0.01,Wunderground v.1.15,2013-02-05 20:57:00,
2013-02-05 15:02:00,53.7,38.8,29.97,West,263,3.0,7.0,57,0.00,,,0.01,Wunderground v.1.15,2013-02-05 21:02:00,
2013-02-05 15:07:00,53.8,39.4,29.97,West,275,9.0,9.0,58,0.00,,,0.01,Wunderground v.1.15,2013-02-05 21:07:00,
2013-02-05 15:12:00,53.9,38.6,29.97,West,267,6.0,9.0,56,0.00,,,0.01,Wunderground v.1.15,2013-02-05 21:12:00,
2013-02-05 15:17:00,54.1,38.3,29.97,WSW,244,7.0,9.0,55,0.00,,,0.01,Wunderground v.1.15,2013-02-05 21:17:00,
2013-02-05 15:22:00,54.2,38.8,29.97,WNW,295,4.0,7.0,56,0.00,,,0.01,Wunderground v.1.15,2013-02-05 21:22:00,
2013-02-05 15:27:00,54.4,39.0,29.97,WNW,286,8.0,9.0,56,0.00,,,0.01,Wunderground v.1.15,2013-02-05 21:27:00,
2013-02-05 15:32:00,54.3,39.4,29.97,West,277,3.0,10.0,57,0.00,,,0.01,Wunderground v.1.15,2013-02-05 21:32:00,
2013-02-05 15:37:00,54.3,39.8,29.97,West,265,4.0,11.0,58,0.00,,,0.01,Wunderground v.1.15,2013-02-05 21:37:00,
2013-02-05 15:42:00,54.2,39.7,29.97,WNW,282,9.0,9.0,58,0.00,,,0.01,Wunderground v.1.15,2013-02-05 21:42:00,
2013-02-05 15:48:00,54.2,40.2,29.96,WSW,247,5.0,10.0,59,0.00,,,0.01,Wunderground v.1.15,2013-02-05 21:48:00,
2013-02-05 15:53:00,54.4,40.4,29.97,SW,229,7.0,7.0,59,0.00,,,0.01,Wunderground v.1.15,2013-02-05 21:53:00,
2013-02-05 15:58:00,54.3,40.3,29.96,WNW,298,6.0,8.0,59,0.00,,,0.01,Wunderground v.1.15,2013-02-05 21:58:00,
2013-02-05 16:03:00,54.3,41.1,29.97,SW,217,6.0,8.0,61,0.00,,,0.01,Wunderground v.1.15,2013-02-05 22:03:00,
2013-02-05 16:08:00,54.1,40.5,29.96,West,281,9.0,9.0,60,0.00,,,0.01,Wunderground v.1.15,2013-02-05 22:08:00,
2013-02-05 16:13:00,54.0,40.8,29.96,WSW,252,6.0,8.0,61,0.00,,,0.01,Wunderground v.1.15,2013-02-05 22:13:00,
2013-02-05 16:18:00,53.8,41.5,29.97,WSW,240,5.0,8.0,63,0.00,,,0.01,Wunderground v.1.15,2013-02-05 22:18:00,
2013-02-05 16:23:00,53.8,41.5,29.97,West,280,3.0,8.0,63,0.00,,,0.01,Wunderground v.1.15,2013-02-05 22:23:00,
2013-02-05 16:28:00,54.0,41.3,29.97,West,275,4.0,8.0,62,0.00,,,0.01,Wunderground v.1.15,2013-02-05 22:28:00,
2013-02-05 16:33:00,53.8,41.5,29.97,WSW,243,1.0,6.0,63,0.00,,,0.01,Wunderground v.1.15,2013-02-05 22:33:00,
2013-02-05 16:38:00,53.8,41.9,29.97,WSW,248,7.0,8.0,64,0.00,,,0.01,Wunderground v.1.15,2013-02-05 22:38:00,
2013-02-05 16:43:00,53.5,42.4,29.97,WSW,250,4.0,7.0,66,0.00,,,0.01,Wunderground v.1.15,2013-02-05 22:43:00,
2013-02-05 16:48:00,53.4,42.3,29.97,SW,229,5.0,7.0,66,0.00,,,0.01,Wunderground v.1.15,2013-02-05 22:48:00,
2013-02-05 16:53:00,53.2,42.5,29.97,SW,223,3.0,7.0,67,0.00,,,0.01,Wunderground v.1.15,2013-02-05 22:53:00,
2013-02-05 16:58:00,52.9,42.2,29.97,SSW,200,7.0,8.0,67,0.00,,,0.01,Wunderground v.1.15,2013-02-05 22:58:00,
2013-02-05 17:03:00,52.5,42.6,29.97,SSW,201,6.0,8.0,69,0.00,,,0.01,Wunderground v.1.15,2013-02-05 23:03:00,
2013-02-05 17:08:00,52.2,42.3,29.98,South,169,3.0,8.0,69,0.00,,,0.01,Wunderground v.1.15,2013-02-05 23:08:00,
2013-02-05 17:13:00,51.9,42.4,29.97,South,169,4.0,9.0,70,0.00,,,0.01,Wunderground v.1.15,2013-02-05 23:13:00,
2013-02-05 17:18:00,51.6,42.5,29.97,South,177,3.0,9.0,71,0.00,,,0.01,Wunderground v.1.15,2013-02-05 23:18:00,
2013-02-05 17:23:00,51.3,42.6,29.97,SSW,198,5.0,7.0,72,0.00,,,0.01,Wunderground v.1.15,2013-02-05 23:23:00,
2013-02-05 17:28:00,51.1,42.4,29.98,SSW,213,5.0,7.0,72,0.00,,,0.01,Wunderground v.1.15,2013-02-05 23:28:00,
2013-02-05 17:33:00,50.9,42.2,29.98,SSE,159,3.0,8.0,72,0.00,,,0.01,Wunderground v.1.15,2013-02-05 23:33:00,
2013-02-05 17:38:00,50.9,42.6,29.98,SSW,192,3.0,12.0,73,0.00,,,0.01,Wunderground v.1.15,2013-02-05 23:38:00,
2013-02-05 17:43:00,51.0,42.6,29.98,SSW,212,7.0,13.0,73,0.00,,,0.01,Wunderground v.1.15,2013-02-05 23:43:00,
2013-02-05 17:48:00,51.0,42.6,29.98,SW,229,9.0,13.0,73,0.00,,,0.01,Wunderground v.1.15,2013-02-05 23:48:00,
2013-02-05 17:54:00,50.9,42.6,29.99,SSW,213,6.0,11.0,73,0.00,,,0.01,Wunderground v.1.15,2013-02-05 23:54:00,
2013-02-05 17:59:00,50.9,41.8,29.99,SW,231,8.0,12.0,71,0.00,,,0.01,Wunderground v.1.15,2013-02-05 23:59:00,
2013-02-05 18:04:00,51.0,41.9,29.99,West,263,6.0,12.0,71,0.00,,,0.01,Wunderground v.1.15,2013-02-06 00:04:00,
2013-02-05 18:09:00,50.9,41.1,29.99,SSW,196,7.0,12.0,69,0.00,,,0.01,Wunderground v.1.15,2013-02-06 00:09:00,
2013-02-05 18:14:00,50.8,40.6,29.99,SW,230,10.0,12.0,68,0.00,,,0.01,Wunderground v.1.15,2013-02-06 00:14:00,
2013-02-05 18:19:00,50.8,41.0,29.99,SW,232,8.0,12.0,69,0.00,,,0.01,Wunderground v.1.15,2013-02-06 00:19:00,
2013-02-05 18:24:00,50.8,41.0,29.99,SW,217,11.0,12.0,69,0.00,,,0.01,Wunderground v.1.15,2013-02-06 00:24:00,
2013-02-05 18:29:00,50.7,40.9,29.99,SW,233,8.0,12.0,69,0.00,,,0.01,Wunderground v.1.15,2013-02-06 00:29:00,
2013-02-05 18:34:00,50.6,40.8,29.99,SW,236,7.0,11.0,69,0.00,,,0.01,Wunderground v.1.15,2013-02-06 00:34:00,
2013-02-05 18:39:00,50.5,40.7,29.99,WSW,258,10.0,13.0,69,0.00,,,0.01,Wunderground v.1.15,2013-02-06 00:39:00,
2013-02-05 18:44:00,50.5,40.7,30.00,SW,227,5.0,12.0,69,0.00,,,0.01,Wunderground v.1.15,2013-02-06 00:44:00,
2013-02-05 18:49:00,50.4,41.0,30.00,WSW,252,11.0,12.0,70,0.00,,,0.01,Wunderground v.1.15,2013-02-06 00:49:00,
2013-02-05 18:54:00,50.2,40.8,30.00,WSW,245,10.0,13.0,70,0.00,,,0.01,Wunderground v.1.15,2013-02-06 00:54:00,
2013-02-05 18:59:00,50.2,40.8,30.00,SW,236,9.0,14.0,70,0.00,,,0.01,Wunderground v.1.15,2013-02-06 00:59:00,
2013-02-05 19:05:00,50.1,41.1,30.00,West,269,12.0,14.0,71,0.00,,,0.01,Wunderground v.1.15,2013-02-06 01:05:00,
2013-02-05 19:10:00,50.0,41.0,30.00,WNW,294,12.0,14.0,71,0.00,,,0.01,Wunderground v.1.15,2013-02-06 01:10:00,
2013-02-05 19:15:00,50.1,41.1,30.00,WNW,288,10.0,16.0,71,0.00,,,0.01,Wunderground v.1.15,2013-02-06 01:15:00,
2013-02-05 19:20:00,49.9,40.9,30.00,WSW,252,12.0,16.0,71,0.00,,,0.01,Wunderground v.1.15,2013-02-06 01:20:00,
2013-02-05 19:25:00,49.7,41.0,30.00,West,265,10.0,13.0,72,0.00,,,0.01,Wunderground v.1.15,2013-02-06 01:25:00,
2013-02-05 19:30:00,49.7,41.0,30.00,WSW,243,9.0,13.0,72,0.00,,,0.01,Wunderground v.1.15,2013-02-06 01:30:00,
2013-02-05 19:35:00,49.7,41.0,30.00,WSW,244,12.0,15.0,72,0.00,,,0.01,Wunderground v.1.15,2013-02-06 01:35:00,
2013-02-05 19:40:00,49.7,41.0,30.00,WSW,247,16.0,16.0,72,0.00,,,0.01,Wunderground v.1.15,2013-02-06 01:40:00,
2013-02-05 19:45:00,49.7,41.0,30.00,WSW,257,10.0,14.0,72,0.00,,,0.01,Wunderground v.1.15,2013-02-06 01:45:00,
2013-02-05 19:50:00,49.8,41.1,30.00,SW,229,12.0,18.0,72,0.00,,,0.01,Wunderground v.1.15,2013-02-06 01:50:00,
2013-02-05 19:55:00,49.6,40.9,30.00,WSW,242,15.0,17.0,72,0.00,,,0.01,Wunderground v.1.15,2013-02-06 01:55:00,
2013-02-05 20:00:00,49.7,41.0,30.00,SW,234,11.0,17.0,72,0.00,,,0.01,Wunderground v.1.15,2013-02-06 02:00:00,
2013-02-05 20:05:00,49.9,40.9,30.01,WSW,250,11.0,17.0,71,0.00,,,0.01,Wunderground v.1.15,2013-02-06 02:05:00,
2013-02-05 20:10:00,50.1,41.1,30.00,SW,235,17.0,18.0,71,0.00,,,0.01,Wunderground v.1.15,2013-02-06 02:10:00,
2013-02-05 20:15:00,50.2,41.2,30.00,SSW,209,12.0,19.0,71,0.00,,,0.01,Wunderground v.1.15,2013-02-06 02:15:00,
2013-02-05 20:20:00,50.1,41.1,30.01,SW,224,13.0,19.0,71,0.00,,,0.01,Wunderground v.1.15,2013-02-06 02:20:00,
2013-02-05 20:25:00,50.0,41.0,30.01,SW,216,14.0,18.0,71,0.00,,,0.01,Wunderground v.1.15,2013-02-06 02:25:00,
2013-02-05 20:30:00,49.9,41.2,30.01,WSW,242,14.0,14.0,72,0.00,,,0.01,Wunderground v.1.15,2013-02-06 02:30:00,
2013-02-05 20:35:00,49.8,41.1,30.01,SW,227,12.0,19.0,72,0.00,,,0.01,Wunderground v.1.15,2013-02-06 02:35:00,
2013-02-05 20:40:00,49.5,41.2,30.02,SW,236,17.0,17.0,73,0.00,,,0.01,Wunderground v.1.15,2013-02-06 02:40:00,
2013-02-05 20:46:00,49.5,41.6,30.02,SW,222,18.0,18.0,74,0.00,,,0.01,Wunderground v.1.15,2013-02-06 02:46:00,
2013-02-05 20:51:00,49.4,41.5,30.02,WSW,245,13.0,17.0,74,0.00,,,0.01,Wunderground v.1.15,2013-02-06 02:51:00,
2013-02-05 20:56:00,49.4,41.1,30.02,WSW,249,19.0,20.0,73,0.00,,,0.01,Wunderground v.1.15,2013-02-06 02:56:00,
2013-02-05 21:01:00,49.6,40.9,30.02,West,271,16.0,18.0,72,0.00,,,0.01,Wunderground v.1.15,2013-02-06 03:01:00,
2013-02-05 21:06:00,49.4,41.5,30.02,WSW,241,22.0,22.0,74,0.00,,,0.01,Wunderground v.1.15,2013-02-06 03:06:00,
2013-02-05 21:11:00,49.3,41.0,30.02,WSW,242,19.0,19.0,73,0.00,,,0.01,Wunderground v.1.15,2013-02-06 03:11:00,
2013-02-05 21:16:00,49.5,40.8,30.02,WSW,250,18.0,21.0,72,0.00,,,0.01,Wunderground v.1.15,2013-02-06 03:16:00,
2013-02-05 21:21:00,49.2,41.3,30.02,WSW,245,18.0,22.0,74,0.00,,,0.01,Wunderground v.1.15,2013-02-06 03:21:00,
2013-02-05 21:26:00,49.3,41.4,30.02,SW,223,12.0,23.0,74,0.00,,,0.01,Wunderground v.1.15,2013-02-06 03:26:00,
2013-02-05 21:31:00,49.2,41.3,30.03,West,272,16.0,22.0,74,0.00,,,0.01,Wunderground v.1.15,2013-02-06 03:31:00,
2013-02-05 21:36:00,49.5,40.8,30.02,West,259,19.0,24.0,72,0.00,,,0.01,Wunderground v.1.15,2013-02-06 03:36:00,
2013-02-05 21:41:00,49.5,40.8,30.02,WSW,250,18.0,21.0,72,0.00,,,0.01,Wunderground v.1.15,2013-02-06 03:41:00,
2013-02-05 21:46:00,49.6,40.9,30.02,WSW,243,18.0,23.0,72,0.00,,,0.01,Wunderground v.1.15,2013-02-06 03:46:00,
2013-02-05 21:51:00,49.6,40.9,30.03,West,267,16.0,20.0,72,0.00,,,0.01,Wunderground v.1.15,2013-02-06 03:51:00,
2013-02-05 21:56:00,49.4,40.7,30.03,WSW,241,20.0,22.0,72,0.00,,,0.01,Wunderground v.1.15,2013-02-06 03:56:00,
2013-02-05 22:01:00,49.1,40.8,30.03,SW,232,10.0,21.0,73,0.00,,,0.01,Wunderground v.1.15,2013-02-06 04:01:00,
2013-02-05 22:06:00,49.0,41.1,30.03,West,261,21.0,21.0,74,0.00,,,0.01,Wunderground v.1.15,2013-02-06 04:06:00,
2013-02-05 22:11:00,49.2,40.9,30.03,WSW,258,13.0,18.0,73,0.00,,,0.01,Wunderground v.1.15,2013-02-06 04:11:00,
2013-02-05 22:16:00,48.8,40.9,30.03,WSW,250,15.0,19.0,74,0.00,,,0.01,Wunderground v.1.15,2013-02-06 04:16:00,
2013-02-05 22:21:00,48.6,41.4,30.03,West,269,18.0,21.0,76,0.00,,,0.01,Wunderground v.1.15,2013-02-06 04:21:00,
2013-02-05 22:26:00,48.5,41.3,30.03,WNW,291,16.0,21.0,76,0.00,,,0.01,Wunderground v.1.15,2013-02-06 04:26:00,
2013-02-05 22:31:00,48.2,41.3,30.03,West,273,14.0,19.0,77,0.00,,,0.01,Wunderground v.1.15,2013-02-06 04:31:00,
2013-02-05 22:36:00,48.0,41.5,30.04,WSW,254,15.0,22.0,78,0.00,,,0.01,Wunderground v.1.15,2013-02-06 04:36:00,
2013-02-05 22:41:00,47.9,41.0,30.03,West,272,17.0,19.0,77,0.00,,,0.01,Wunderground v.1.15,2013-02-06 04:41:00,
2013-02-05 22:46:00,48.2,40.6,30.04,West,270,17.0,19.0,75,0.00,,,0.01,Wunderground v.1.15,2013-02-06 04:46:00,
2013-02-05 22:51:00,48.0,40.5,30.04,West,279,17.0,18.0,75,0.00,,,0.01,Wunderground v.1.15,2013-02-06 04:51:00,
2013-02-05 22:56:00,48.0,40.5,30.04,West,278,16.0,21.0,75,0.00,,,0.01,Wunderground v.1.15,2013-02-06 04:56:00,
2013-02-05 23:00:00,48.0,40.5,30.04,West,269,17.0,21.0,75,0.00,,,0.01,Wunderground v.1.15,2013-02-06 05:00:00,
2013-02-05 23:05:00,47.9,40.4,30.04,West,261,15.0,18.0,75,0.00,,,0.01,Wunderground v.1.15,2013-02-06 05:05:00,
2013-02-05 23:10:00,47.6,39.7,30.04,WNW,285,17.0,17.0,74,0.00,,,0.01,Wunderground v.1.15,2013-02-06 05:10:00,
2013-02-05 23:15:00,47.8,39.9,30.04,West,259,17.0,18.0,74,0.00,,,0.01,Wunderground v.1.15,2013-02-06 05:15:00,
2013-02-05 23:20:00,47.5,40.0,30.04,West,280,14.0,16.0,75,0.00,,,0.01,Wunderground v.1.15,2013-02-06 05:20:00,
2013-02-05 23:25:00,47.4,39.5,30.04,WNW,291,13.0,19.0,74,0.00,,,0.01,Wunderground v.1.15,2013-02-06 05:25:00,
2013-02-05 23:30:00,47.4,39.9,30.04,West,267,14.0,15.0,75,0.00,,,0.01,Wunderground v.1.15,2013-02-06 05:30:00,
2013-02-05 23:35:00,47.7,39.1,30.05,WNW,298,14.0,17.0,72,0.00,,,0.01,Wunderground v.1.15,2013-02-06 05:35:00,
2013-02-05 23:40:00,47.4,39.5,30.05,West,269,13.0,15.0,74,0.00,,,0.01,Wunderground v.1.15,2013-02-06 05:40:00,
2013-02-05 23:46:00,47.0,40.2,30.05,West,273,16.0,18.0,77,0.00,,,0.01,Wunderground v.1.15,2013-02-06 05:46:00,
2013-02-05 23:51:00,47.0,39.5,30.05,West,273,14.0,18.0,75,0.00,,,0.01,Wunderground v.1.15,2013-02-06 05:51:00,
2013-02-05 23:56:00,46.7,39.2,30.05,WNW,292,15.0,18.0,75,0.00,,,0.01,Wunderground v.1.15,2013-02-06 05:56:00,